KLM46C LIML-EHAM

Flight info

Callsign KLM46C
Flight time 1h 22m
Altitude 38000
Route ARLES DCT PUNSA DCT VADEM DCT GILIR DCT PENDU DCT IXILU DCT EPL DCT ROUSY DCT KOMOB DCT BUB Y28 HELEN
Aircraft A320/M-SDE3FGHIRWY/LB1

Departure

Time 2026-04-27 07:43
Airport Milano Linate Airport (LIML)

Arrival

Time 2026-04-27 09:06
Airport Amsterdam Airport Schiphol (EHAM)
Time Latitude Longitude Altitude Speed Heading
2026-04-27 07:23 45.45975 9.27903 360 ft 0 kts 360°
2026-04-27 07:34 45.45960 9.27903 362 ft 2 kts 360°
2026-04-27 07:35 45.45943 9.27903 360 ft 2 kts 360°
2026-04-27 07:35 45.45927 9.27903 360 ft 2 kts 334°
2026-04-27 07:35 45.45911 9.27907 364 ft 2 kts 41°
2026-04-27 07:35 45.45904 9.27896 360 ft 0 kts 77°
2026-04-27 07:37 45.45905 9.27907 363 ft 4 kts 81°
2026-04-27 07:37 45.45906 9.27937 360 ft 3 kts 92°
2026-04-27 07:37 45.45899 9.27963 360 ft 3 kts 119°
2026-04-27 07:38 45.45878 9.27983 360 ft 5 kts 164°
2026-04-27 07:38 45.45844 9.27984 360 ft 4 kts 182°
2026-04-27 07:38 45.45818 9.27982 360 ft 3 kts 182°
2026-04-27 07:38 45.45797 9.27982 360 ft 3 kts 180°
2026-04-27 07:39 45.45760 9.27982 363 ft 7 kts 179°
2026-04-27 07:39 45.45712 9.27982 361 ft 6 kts 181°
2026-04-27 07:39 45.45671 9.27979 360 ft 5 kts 182°
2026-04-27 07:39 45.45640 9.27978 360 ft 4 kts 180°
2026-04-27 07:40 45.45601 9.27978 363 ft 8 kts 180°
2026-04-27 07:40 45.45539 9.27979 360 ft 8 kts 179°
2026-04-27 07:40 45.45485 9.27975 360 ft 7 kts 189°
2026-04-27 07:40 45.45456 9.27933 363 ft 6 kts 256°
2026-04-27 07:41 45.45457 9.27882 362 ft 5 kts 272°
2026-04-27 07:41 45.45459 9.27838 360 ft 4 kts 272°
2026-04-27 07:41 45.45454 9.27793 360 ft 5 kts 252°
2026-04-27 07:41 45.45426 9.27745 359 ft 7 kts 219°
2026-04-27 07:42 45.45397 9.27689 361 ft 8 kts 254°
2026-04-27 07:42 45.45382 9.27612 361 ft 7 kts 216°
2026-04-27 07:42 45.45364 9.27613 363 ft 0 kts 174°
2026-04-27 07:42 45.45246 9.27628 358 ft 54 kts 175°
2026-04-27 07:43 45.44604 9.27697 363 ft 125 kts 175°
2026-04-27 07:43 45.43567 9.27809 404 ft 173 kts 174°
2026-04-27 07:43 45.42368 9.27964 1168 ft 170 kts 174°
2026-04-27 07:43 45.41204 9.28104 1973 ft 169 kts 175°
2026-04-27 07:44 45.40025 9.27751 2513 ft 189 kts 214°
2026-04-27 07:44 45.39279 9.26128 2873 ft 213 kts 258°
2026-04-27 07:44 45.39512 9.23998 3249 ft 232 kts 300°
2026-04-27 07:44 45.40483 9.22082 3701 ft 257 kts 310°
2026-04-27 07:45 45.41716 9.20109 4460 ft 268 kts 313°
2026-04-27 07:45 45.42985 9.18193 5412 ft 271 kts 313°
2026-04-27 07:45 45.44285 9.16231 6392 ft 275 kts 313°
2026-04-27 07:45 45.45615 9.14195 7312 ft 278 kts 313°
2026-04-27 07:46 45.46905 9.12189 8230 ft 281 kts 312°
2026-04-27 07:46 45.48186 9.10167 9168 ft 282 kts 311°
2026-04-27 07:46 45.49494 9.08083 10096 ft 285 kts 311°
2026-04-27 07:46 45.50838 9.05930 10605 ft 303 kts 311°
2026-04-27 07:47 45.52290 9.03593 10891 ft 327 kts 311°
2026-04-27 07:47 45.53839 9.01094 11308 ft 343 kts 311°
2026-04-27 07:47 45.55434 8.98522 12014 ft 349 kts 311°
2026-04-27 07:47 45.57045 8.95924 12778 ft 353 kts 311°
2026-04-27 07:48 45.58683 8.93286 13546 ft 357 kts 311°
2026-04-27 07:48 45.60331 8.90633 14281 ft 360 kts 311°
2026-04-27 07:48 45.61990 8.87958 14961 ft 363 kts 311°
2026-04-27 07:48 45.63673 8.85240 15673 ft 366 kts 311°
2026-04-27 07:49 45.65363 8.82509 16379 ft 368 kts 312°
2026-04-27 07:49 45.67063 8.79757 17056 ft 371 kts 311°
2026-04-27 07:49 45.68769 8.76987 17720 ft 374 kts 312°
2026-04-27 07:49 45.70500 8.74178 18378 ft 377 kts 312°
2026-04-27 07:50 45.72239 8.71355 18944 ft 380 kts 312°
2026-04-27 07:50 45.73992 8.68511 19499 ft 383 kts 312°
2026-04-27 07:50 45.75759 8.65639 20034 ft 386 kts 312°
2026-04-27 07:50 45.77533 8.62750 20586 ft 388 kts 312°
2026-04-27 07:51 45.79321 8.59833 21114 ft 391 kts 312°
2026-04-27 07:51 45.81120 8.56898 21635 ft 394 kts 312°
2026-04-27 07:51 45.82935 8.53933 22150 ft 397 kts 312°
2026-04-27 07:51 45.84762 8.50943 22664 ft 400 kts 312°
2026-04-27 07:52 45.86603 8.47932 23186 ft 403 kts 312°
2026-04-27 07:52 45.88453 8.44899 23678 ft 405 kts 312°
2026-04-27 07:52 45.90316 8.41840 24106 ft 408 kts 312°
2026-04-27 07:52 45.92185 8.38763 24519 ft 410 kts 310°
2026-04-27 07:53 45.93854 8.35428 24911 ft 413 kts 302°
2026-04-27 07:53 45.95338 8.31954 25291 ft 415 kts 302°
2026-04-27 07:53 45.96854 8.28407 25709 ft 417 kts 302°
2026-04-27 07:53 45.98374 8.24849 26129 ft 419 kts 302°
2026-04-27 07:54 45.99904 8.21278 26531 ft 421 kts 302°
2026-04-27 07:54 46.01439 8.17689 26938 ft 422 kts 302°
2026-04-27 07:54 46.02979 8.14082 27365 ft 424 kts 302°
2026-04-27 07:54 46.04521 8.10468 27747 ft 426 kts 302°
2026-04-27 07:55 46.06074 8.06814 28103 ft 428 kts 302°
2026-04-27 07:55 46.07630 8.03147 28441 ft 430 kts 302°
2026-04-27 07:55 46.09193 7.99469 28786 ft 432 kts 302°
2026-04-27 07:55 46.10772 7.95772 29163 ft 433 kts 302°
2026-04-27 07:56 46.12356 7.92070 29492 ft 435 kts 302°
2026-04-27 07:56 46.13945 7.88360 29805 ft 437 kts 302°
2026-04-27 07:56 46.14304 7.87521 29872 ft 437 kts 302°
2026-04-27 07:56 46.15264 7.85277 30067 ft 438 kts 302°
2026-04-27 07:57 46.16868 7.81521 30401 ft 439 kts 302°
2026-04-27 07:57 46.18463 7.77772 30797 ft 438 kts 302°
2026-04-27 07:57 46.18542 7.77586 30811 ft 438 kts 302°
2026-04-27 07:58 46.20602 7.72725 31262 ft 437 kts 302°
2026-04-27 07:58 46.22184 7.68979 31651 ft 436 kts 302°
2026-04-27 07:59 46.23762 7.65248 32016 ft 435 kts 302°
2026-04-27 07:59 46.26918 7.57794 32781 ft 434 kts 302°
2026-04-27 07:59 46.28483 7.54080 33140 ft 433 kts 302°
2026-04-27 08:00 46.30006 7.50462 33494 ft 432 kts 302°
2026-04-27 08:00 46.31604 7.46662 33861 ft 431 kts 303°
2026-04-27 08:00 46.33159 7.42957 34229 ft 430 kts 303°
2026-04-27 08:00 46.34712 7.39259 34552 ft 429 kts 303°
2026-04-27 08:01 46.36256 7.35574 34860 ft 428 kts 303°
2026-04-27 08:01 46.37799 7.31884 35174 ft 428 kts 302°
2026-04-27 08:01 46.39333 7.28202 35496 ft 427 kts 302°
2026-04-27 08:01 46.40867 7.24519 35791 ft 426 kts 302°
2026-04-27 08:02 46.42392 7.20851 36082 ft 425 kts 302°
2026-04-27 08:02 46.43916 7.17182 36375 ft 424 kts 302°
2026-04-27 08:02 46.45435 7.13520 36662 ft 424 kts 302°
2026-04-27 08:02 46.46950 7.09872 36940 ft 423 kts 302°
2026-04-27 08:03 46.48465 7.06223 37193 ft 422 kts 302°
2026-04-27 08:03 46.49979 7.02572 37449 ft 422 kts 302°
2026-04-27 08:03 46.51484 6.98936 37702 ft 421 kts 302°
2026-04-27 08:03 46.52986 6.95296 37955 ft 420 kts 302°
2026-04-27 08:04 46.54486 6.91653 38164 ft 421 kts 302°
2026-04-27 08:04 46.55988 6.88007 38213 ft 420 kts 302°
2026-04-27 08:04 46.58977 6.80723 38211 ft 419 kts 302°
2026-04-27 08:05 46.61936 6.73494 38215 ft 419 kts 302°
2026-04-27 08:05 46.64928 6.66168 38215 ft 418 kts 302°
2026-04-27 08:06 46.67901 6.58880 38216 ft 419 kts 302°
2026-04-27 08:06 46.71017 6.51728 38217 ft 418 kts 310°
2026-04-27 08:07 46.75370 6.46187 38205 ft 418 kts 329°
2026-04-27 08:07 46.80546 6.42413 38207 ft 419 kts 332°
2026-04-27 08:08 46.85793 6.38680 38212 ft 420 kts 332°
2026-04-27 08:08 46.91038 6.34910 38201 ft 420 kts 332°
2026-04-27 08:09 46.96284 6.31134 38201 ft 420 kts 332°
2026-04-27 08:09 47.01533 6.27370 38210 ft 420 kts 332°
2026-04-27 08:10 47.06786 6.23600 38201 ft 421 kts 332°
2026-04-27 08:10 47.12040 6.19814 38198 ft 421 kts 332°
2026-04-27 08:11 47.16409 6.16665 38191 ft 421 kts 332°
2026-04-27 08:11 47.21676 6.12863 38187 ft 423 kts 332°
2026-04-27 08:12 47.26957 6.09039 38190 ft 424 kts 331°
2026-04-27 08:12 47.32267 6.05270 38189 ft 426 kts 336°
2026-04-27 08:13 47.38069 6.03390 38189 ft 432 kts 355°
2026-04-27 08:13 47.44099 6.03458 38203 ft 434 kts 358°
2026-04-27 08:14 47.50147 6.03595 38211 ft 435 kts 358°
2026-04-27 08:14 47.56197 6.03730 38216 ft 435 kts 358°
2026-04-27 08:15 47.62259 6.03871 38212 ft 435 kts 358°
2026-04-27 08:15 47.68280 6.04002 38228 ft 436 kts 358°
2026-04-27 08:16 47.74341 6.04152 38226 ft 436 kts 358°
2026-04-27 08:16 47.80409 6.04324 38225 ft 436 kts 358°
2026-04-27 08:17 47.86479 6.04518 38242 ft 436 kts 358°
2026-04-27 08:17 47.92545 6.04714 38235 ft 437 kts 358°
2026-04-27 08:18 47.98626 6.04906 38235 ft 437 kts 358°
2026-04-27 08:18 48.04701 6.05088 38230 ft 437 kts 358°
2026-04-27 08:19 48.10770 6.05270 38238 ft 437 kts 357°
2026-04-27 08:19 48.16856 6.05464 38237 ft 439 kts 358°
2026-04-27 08:20 48.22950 6.05660 38223 ft 437 kts 358°
2026-04-27 08:20 48.29030 6.05857 38234 ft 438 kts 357°
2026-04-27 08:21 48.35122 6.06072 38226 ft 438 kts 358°
2026-04-27 08:21 48.41215 6.06369 38225 ft 439 kts 358°
2026-04-27 08:22 48.47317 6.06677 38227 ft 439 kts 358°
2026-04-27 08:22 48.53416 6.06973 38255 ft 439 kts 358°
2026-04-27 08:23 48.59512 6.07256 38252 ft 440 kts 358°
2026-04-27 08:23 48.65618 6.07536 38242 ft 441 kts 358°
2026-04-27 08:24 48.71728 6.07837 38241 ft 441 kts 358°
2026-04-27 08:24 48.77802 6.08123 38241 ft 442 kts 358°
2026-04-27 08:25 48.83944 6.08413 38242 ft 442 kts 358°
2026-04-27 08:25 48.90066 6.08706 38246 ft 442 kts 358°
2026-04-27 08:26 48.96211 6.09003 38266 ft 443 kts 358°
2026-04-27 08:26 49.02343 6.09302 38260 ft 442 kts 358°
2026-04-27 08:27 49.08476 6.09593 38260 ft 443 kts 358°
2026-04-27 08:27 49.14616 6.09888 38272 ft 443 kts 358°
2026-04-27 08:28 49.20760 6.10192 38259 ft 443 kts 358°
2026-04-27 08:28 49.26906 6.10497 38257 ft 443 kts 357°
2026-04-27 08:29 49.33049 6.10789 38254 ft 443 kts 358°
2026-04-27 08:29 49.39186 6.11087 38275 ft 443 kts 357°
2026-04-27 08:30 49.45277 6.10758 38262 ft 435 kts 345°
2026-04-27 08:30 49.50871 6.07718 38257 ft 425 kts 327°
2026-04-27 08:31 49.55718 6.02685 38255 ft 421 kts 321°
2026-04-27 08:31 49.60402 5.97551 38264 ft 422 kts 321°
2026-04-27 08:32 49.65247 5.92207 38259 ft 422 kts 321°
2026-04-27 08:32 49.70016 5.86932 38253 ft 422 kts 321°
2026-04-27 08:33 49.74794 5.81655 38241 ft 422 kts 321°
2026-04-27 08:33 49.79569 5.76363 38235 ft 423 kts 320°
2026-04-27 08:34 49.84351 5.71045 38251 ft 423 kts 320°
2026-04-27 08:34 49.89135 5.65720 38246 ft 423 kts 320°
2026-04-27 08:35 49.93911 5.60390 38242 ft 423 kts 320°
2026-04-27 08:35 49.98686 5.55050 38240 ft 423 kts 320°
2026-04-27 08:36 50.03458 5.49700 38243 ft 423 kts 320°
2026-04-27 08:36 50.08032 5.44558 38252 ft 423 kts 320°
2026-04-27 08:37 50.12579 5.39429 38253 ft 424 kts 320°
2026-04-27 08:37 50.17227 5.34230 38249 ft 424 kts 321°
2026-04-27 08:38 50.22071 5.29010 38253 ft 425 kts 322°
2026-04-27 08:38 50.26922 5.23802 38253 ft 425 kts 321°
2026-04-27 08:39 50.31767 5.18536 38284 ft 424 kts 321°
2026-04-27 08:39 50.36595 5.13246 38277 ft 424 kts 321°
2026-04-27 08:40 50.41426 5.07944 38279 ft 424 kts 321°
2026-04-27 08:40 50.46264 5.02642 38272 ft 425 kts 321°
2026-04-27 08:41 50.51061 4.97390 38274 ft 425 kts 321°
2026-04-27 08:41 50.55895 4.92068 38292 ft 425 kts 321°
2026-04-27 08:42 50.60710 4.86755 38293 ft 425 kts 321°
2026-04-27 08:42 50.65443 4.81512 38288 ft 425 kts 321°
2026-04-27 08:43 50.70256 4.76148 38295 ft 425 kts 321°
2026-04-27 08:43 50.75080 4.70768 38294 ft 425 kts 321°
2026-04-27 08:44 50.79895 4.65396 38319 ft 426 kts 321°
2026-04-27 08:44 50.84697 4.60028 38313 ft 426 kts 321°
2026-04-27 08:45 50.89359 4.54390 38306 ft 422 kts 312°
2026-04-27 08:45 50.92847 4.47082 38303 ft 417 kts 299°
2026-04-27 08:46 50.94278 4.43351 37932 ft 417 kts 299°
2026-04-27 08:46 50.95799 4.39403 36837 ft 424 kts 299°
2026-04-27 08:46 50.97343 4.35396 35965 ft 428 kts 299°
2026-04-27 08:46 50.98893 4.31376 35136 ft 429 kts 298°
2026-04-27 08:47 51.00446 4.27345 34409 ft 428 kts 298°
2026-04-27 08:47 51.01999 4.23309 33446 ft 430 kts 298°
2026-04-27 08:47 51.03561 4.19234 32482 ft 431 kts 298°
2026-04-27 08:47 51.05121 4.15151 31415 ft 435 kts 298°
2026-04-27 08:48 51.06685 4.11038 30363 ft 438 kts 298°
2026-04-27 08:48 51.08249 4.07000 29195 ft 441 kts 301°
2026-04-27 08:48 51.10192 4.03240 28409 ft 440 kts 311°
2026-04-27 08:48 51.12486 4.00053 27671 ft 437 kts 320°
2026-04-27 08:49 51.14911 3.97199 26914 ft 432 kts 320°
2026-04-27 08:49 51.17299 3.94380 26169 ft 427 kts 320°
2026-04-27 08:49 51.19666 3.91587 25450 ft 424 kts 321°
2026-04-27 08:49 51.22195 3.89196 24726 ft 425 kts 332°
2026-04-27 08:50 51.24966 3.87602 24015 ft 426 kts 342°
2026-04-27 08:50 51.27890 3.86891 23335 ft 426 kts 353°
2026-04-27 08:50 51.30833 3.86804 22687 ft 421 kts 355°
2026-04-27 08:50 51.33740 3.86745 22057 ft 416 kts 355°
2026-04-27 08:51 51.36566 3.86683 21442 ft 411 kts 355°
2026-04-27 08:51 51.39367 3.86618 20838 ft 406 kts 355°
2026-04-27 08:51 51.42213 3.86546 20217 ft 402 kts 355°
2026-04-27 08:51 51.44992 3.86473 19613 ft 398 kts 355°
2026-04-27 08:52 51.47706 3.86403 19028 ft 395 kts 355°
2026-04-27 08:52 51.50440 3.86335 18409 ft 392 kts 355°
2026-04-27 08:52 51.53159 3.86269 17791 ft 388 kts 355°
2026-04-27 08:52 51.55832 3.86210 17214 ft 383 kts 356°
2026-04-27 08:53 51.58477 3.86155 16634 ft 380 kts 356°
2026-04-27 08:53 51.61100 3.86096 16068 ft 377 kts 356°
2026-04-27 08:53 51.63708 3.86032 15503 ft 374 kts 356°
2026-04-27 08:53 51.66304 3.85964 14943 ft 371 kts 356°
2026-04-27 08:54 51.68879 3.85984 14381 ft 371 kts
2026-04-27 08:54 51.71409 3.86775 13790 ft 373 kts 15°
2026-04-27 08:54 51.73774 3.88473 13214 ft 373 kts 28°
2026-04-27 08:54 51.75851 3.90960 12658 ft 371 kts 40°
2026-04-27 08:55 51.77762 3.93726 12094 ft 367 kts 40°
2026-04-27 08:55 51.79655 3.96460 11537 ft 363 kts 40°
2026-04-27 08:55 51.81537 3.99166 11040 ft 359 kts 40°
2026-04-27 08:55 51.83358 4.01790 10892 ft 343 kts 40°
2026-04-27 08:56 51.85046 4.04235 10762 ft 317 kts 40°
2026-04-27 08:56 51.86637 4.06547 10487 ft 300 kts 40°
2026-04-27 08:56 51.88168 4.08768 10145 ft 293 kts 40°
2026-04-27 08:56 51.89682 4.10957 10015 ft 292 kts 40°
2026-04-27 08:57 51.92714 4.15294 9745 ft 291 kts 39°
2026-04-27 08:57 51.94259 4.17428 9387 ft 293 kts 39°
2026-04-27 08:57 51.95813 4.19551 9229 ft 290 kts 38°
2026-04-27 08:58 51.96828 4.20938 9143 ft 292 kts 39°
2026-04-27 08:58 51.98378 4.23062 8861 ft 292 kts 40°
2026-04-27 08:58 51.99913 4.25172 8498 ft 289 kts 39°
2026-04-27 08:58 52.01404 4.27227 8119 ft 287 kts 40°
2026-04-27 08:59 52.02933 4.29346 7727 ft 284 kts 40°
2026-04-27 08:59 52.04387 4.31370 7364 ft 282 kts 40°
2026-04-27 08:59 52.05912 4.33494 6965 ft 280 kts 40°
2026-04-27 08:59 52.07383 4.35538 6570 ft 278 kts 40°
2026-04-27 09:00 52.08835 4.37557 6168 ft 275 kts 40°
2026-04-27 09:00 52.10284 4.39571 5766 ft 272 kts 40°
2026-04-27 09:00 52.11713 4.41556 5374 ft 269 kts 40°
2026-04-27 09:00 52.13082 4.43458 4799 ft 265 kts 40°
2026-04-27 09:01 52.14477 4.45396 4088 ft 271 kts 40°
2026-04-27 09:01 52.15947 4.47446 3443 ft 279 kts 40°
2026-04-27 09:01 52.17401 4.49485 3190 ft 272 kts 41°
2026-04-27 09:01 52.18801 4.51446 2856 ft 261 kts 40°
2026-04-27 09:02 52.20118 4.53293 2649 ft 238 kts 40°
2026-04-27 09:02 52.21318 4.54975 2531 ft 217 kts 40°
2026-04-27 09:02 52.22326 4.56618 2429 ft 200 kts 55°
2026-04-27 09:02 52.23047 4.58485 2199 ft 189 kts 58°
2026-04-27 09:03 52.23721 4.60257 1954 ft 182 kts 58°
2026-04-27 09:03 52.24365 4.61931 1723 ft 168 kts 58°
2026-04-27 09:03 52.24957 4.63466 1498 ft 150 kts 58°
2026-04-27 09:03 52.25478 4.64815 1293 ft 136 kts 58°
2026-04-27 09:04 52.25969 4.66085 1102 ft 132 kts 59°
2026-04-27 09:04 52.26452 4.67303 927 ft 127 kts 59°
2026-04-27 09:04 52.26918 4.68523 745 ft 125 kts 60°
2026-04-27 09:04 52.27385 4.69752 609 ft 130 kts 59°
2026-04-27 09:05 52.27868 4.71008 431 ft 131 kts 59°
2026-04-27 09:05 52.28354 4.72259 255 ft 128 kts 57°
2026-04-27 09:05 52.28823 4.73477 87 ft 125 kts 58°
2026-04-27 09:05 52.29261 4.74632 3 ft 114 kts 59°
2026-04-27 09:06 52.29557 4.75406 -2 ft 38 kts 58°
2026-04-27 09:06 52.29636 4.75616 -1 ft 19 kts 58°
2026-04-27 09:06 52.29731 4.75770 -2 ft 21 kts 25°
2026-04-27 09:06 52.29855 4.75867 -1 ft 16 kts 27°
2026-04-27 09:07 52.29948 4.75946 -1 ft 14 kts 27°
2026-04-27 09:07 52.30033 4.75939 -1 ft 13 kts 343°
2026-04-27 09:07 52.30104 4.76024 -1 ft 15 kts 60°
2026-04-27 09:07 52.30165 4.76183 -1 ft 15 kts 56°
2026-04-27 09:08 52.30216 4.76243 -1 ft 9 kts 342°
2026-04-27 09:08 52.30264 4.76196 -1 ft 5 kts 331°
2026-04-27 09:08 52.30270 4.76161 -1 ft 3 kts 256°
2026-04-27 09:08 52.30261 4.76135 -1 ft 2 kts 237°
2026-04-27 09:09 52.30254 4.76117 -1 ft 0 kts 237°